STARLINK-31898, 59905

Orbit data source: Space-Track

STARLINK-31898, 59905 is a payload satellite owned by SpaceX/Seattle (US) in LEO that was launched on Tue, 28 May 2024 UTC via an FALCON 9 launch vehicle from the Air Force Eastern Test Range (AFETR). Payload-class satellites include a variety of spacecraft equipped with specific instruments for various scientific and technological missions. These include communications satellites like Starlink; space stations such as the ISS; scientific satellites like the Hubble; Earth observation satellites from companies like Planet Labs, Umbra, and HawkEye 360; GPS; miniature CubeSats for education and research; and military/defense satellites.

Loading next visibility...
Identifier
59905, 2024-100W
Orbit
LEO
Country
Flag of USUS
Related business
Manufacturer
SpaceX/Seattle
Mission
Operational Commercial Communications
Bus & Motor
STARLINK V2M, Unknown motor
Mass
730 kg wet, ~700 kg dry
Launch date (UTC)
2024-05-28 (2 years ago)
Launch vehicle
FALCON 9
Launch site
Air Force Eastern Test Range (AFETR)
Object type
Payload
Rocket body
Debris
Shape & HBR
Box + 2 Pan, 17.7 m
Radar Cross Section
33.884 m², Large (>1 m²)

Expand to show TLE details & history
Last TLE update: 5 hours ago

TLE from 5 hours ago
0 STARLINK-31898
1 59905U 24100W   26036.50002314  .00008543  00000-0  31938-3 0  9994
2 59905  43.0012 303.7504 0001666 267.7152  92.4464 15.27604385  5848
Epoch: 2026-02-05T12:00Z
TLE epoch observation values (Epoch: 2026-02-05T12:00:01.999Z)
Latitude
0.06552°
Longitude
-11.83943°
Altitude
482.792 km
Speed
7.626 km/s
True Right ascension
20h 15m 16s
True Declination
0° 03' 54"
Sunlit
Object was in daylight at epoch
Visualization orbit readout
Latitude
Unknown
Longitude
Unknown
Altitude
Unknown
Speed
Unknown
Apparent Right ascension
Unknown
Apparent Declination
Unknown
Sunlit
N/A
Visualization observer readout
Local Sidereal Time
18:48:26
Azimuth
Unknown
Elevation
Unknown
Doppler factor
Unknown
Orbital elements
Apogee altitude
486.064 km
Perigee altitude
483.778 km
Semi-major axis
6,863.058 km
Eccentricity
0.00017
Inclination
43.0012°
RAAN
303.7504°
Arg. of periapsis
267.7152°
True anomaly
92.46547°
Mean anomaly
92.4464°
Eccentric anomaly
92.45594°
Mean motion
3.81739 °/min
Orbital period
94.31 mins
BSTAR
0.00031938
Loading maneuver chart data...
Computing Atmospheric mass density...
Loading historical data...
Loading historical data...
Loading historical data...
Loading historical data...
Loading historical data...
Loading historical data...
Loading historical data...

Documentation

Showing up to 5 results
|